Regional Weather Roundup
Issued by NWS Goodland, KS

Home | Current Version | Previous Version | Text Only | Print | Product List | Glossary Off
Versions: 1 2 3 4 5 6 7 8 9 10 11 12 13 14 15 16 17 18 19 20 21 22 23 24 25 26 27 28 29 30 31 32 33 34 35 36 37 38 39 40 41 42 43 44 45 46 47 48 49 50

000
ASUS43 KGLD 290259
RWRGLD

GOODLAND FORECAST AREA HOURLY WEATHER ROUNDUP
NATIONAL WEATHER SERVICE GOODLAND KS
900 PM MDT MON JUL 28 2014

...OFFICIAL OBSERVATIONS...

CITY           SKY/WX    TMP DP  RH WIND       PRES   REMARKS
GOODLAND KS    CLOUDY    70  55  59 S9        30.24S
HILL CITY KS   PTCLDY    78  58  49 SE7       30.19R
IMPERIAL NEB   MOCLDY    75  57  53 SE10      30.22R
MCCOOK NEB     PTCLDY    72  60  66 E8        30.21R
AKRON CO       CLOUDY    76  52  43 SE7       30.28R
BURLINGTON CO  CLOUDY    69  58  67 S7        30.26S
LIMON CO       CLOUDY    68  54  60 SE7       30.32R
$$

...UNOFFICIAL OBSERVATIONS...

CITY           SKY/WX    TMP DP  RH WIND       PRES   REMARKS
COLBY KS       CLEAR     75  57  53 S7        30.23S
LENORA KS        N/A     76  32  20 MISG        N/A
NORTON KS      CLEAR     73  55  53 E9        30.19R
TRENTON NEB      N/A     73  32  22 E10         N/A
KIT CARSON CO    N/A     73  58  59 N8          N/A
YUMA CO          N/A     75  53  46 SE12        N/A
$$


USA.gov is the U.S. government's official web portal to all federal, state and local government web resources and services.